Tracking 25734 objects as of 27-May-2022
HD Live streaming from Space Station
objects crossing your sky now

FREGAT DEB

Track FREGAT DEB now!
10-day predictions


NORAD ID: 46242
Int'l Code: 2011-037KC
Perigee: 760.4 km
Apogee: 3,084.6 km
Inclination: 51.3 °
Period: 125.3 minutes
Semi major axis: 8293 km
RCS: Unknown
Launch date: July 18, 2011
Source: Commonwealth of Independent States (former USSR) (CIS)
Launch site: TYURATAM MISSILE AND SPACE COMPLEX (TTMTR)

Note: This is SATELLITE DEBRIS
aabbcc
Your satellite tracking list
Your tracking list is empty




NASA's NSSDC Master Catalog

Two Line Element Set (TLE):
1 46242U 11037KC  22147.00390782 -.00031652  00000-0 -60254-1 0  9992
2 46242  51.3388  42.3611 1401215 296.9999  49.4564 11.49471281 72708
Source of the keplerian elements: AFSPC